{"data":{"norad_id":64885,"intl_designator":"2025-155K","name":"2025-155K","alt_names":[],"object_type":"PAYLOAD","status":"ACTIVE","operator":null,"country":"TBD","launch_date":"2025-07-25","launch_site_code":"VOSTO","launch_vehicle":null,"mission":null,"orbit_class":"UNKNOWN","rcs_meters":null,"size_class":null,"mass_kg":null,"dimensions":null,"purposes":[],"wikipedia_slug":null,"has_3d_model":false,"image_url":null,"decayed_at":null,"tle_current":{"epoch":"2026-05-25T04:29:37.976640Z","epoch_age_seconds":69592,"freshness":"FRESH","line1":"1 64885U 25155K   26145.18724510  .00020787  00000+0  55226-3 0  9991","line2":"2 64885  97.4492 115.4236 0004640 223.1577 136.9304 15.38281953 77376","mean_motion":15.38281953,"eccentricity":0.000464,"inclination_deg":97.4492,"raan_deg":115.4236,"arg_perigee_deg":223.1577,"mean_anomaly_deg":136.9304,"bstar":0.00055226,"rev_number":7737,"period_min":93.610927255024,"perigee_km":448.02072113769,"apogee_km":454.35833615627,"semimajor_km":6829.326528647,"source":"CELESTRAK","updated_at":"2026-05-25T13:38:04.872263Z"}}}